Regional Weather Roundup
Issued by NWS Newport/Morehead, NC

Current Version | Previous Version | Graphics & Text | Print | Product List | Glossary Off
Versions: 1 2 3 4 5 6 7 8 9 10 11 12 13 14 15 16 17 18 19 20 21 22 23 24 25 26 27 28 29 30 31 32 33 34 35 36 37 38 39 40 41 42 43 44 45 46 47 48 49 50

000
ASUS42 KMHX 250410
RWRMHX
WEATHER ROUNDUP FOR EASTERN NORTH CAROLINA
NATIONAL WEATHER SERVICE NEWPORT/MOREHEAD CITY NC
1200 AM EDT SAT OCT 25 2014

NOTE: "FAIR" INDICATES FEW OR NO CLOUDS BELOW 12,000 FEET
WITH NO SIGNIFICANT WEATHER AND/OR OBSTRUCTIONS TO VISIBILITY

NCZ015>017-031-032-045>047-102-103-250500-
NORTH COAST

CITY           SKY/WX    TMP DP  RH WIND       PRES   REMARKS
EDENTON        CLEAR     50  47  92 CALM      29.96F
ELIZABETH CITY FAIR      51  44  77 W5        29.96F
KITTY HAWK     CLEAR     58  50  73 NW3       29.94F
MANTEO         CLEAR     57  54  88 CALM      29.96F

$$

NCZ045>047-081-094-103-104-250500-
CENTRAL COAST

CITY           SKY/WX    TMP DP  RH WIND       PRES   REMARKS
FRISCO         CLEAR     59  55  87 NW5       29.96F
SWANQUARTER      N/A     54 N/A N/A NW2       29.94S

$$

NCZ095-097-098-100-101-250500-
SOUTHERN COAST

CITY           SKY/WX    TMP DP  RH WIND       PRES   REMARKS
BEAUFORT       CLEAR     57  51  80 NW8       29.98S
CEDAR ISLAND     N/A     59 N/A N/A W6        30.00S
JACKSONVILLE   PTCLDY    51  49  92 W3        29.98S
PINEY ISLAND   CLEAR     61  52  72 W7        29.97F
WILMINGTON     PTCLDY    52  50  93 CALM      30.00R


$$

NCZ011>013-027>030-043-044-078>080-089-090>093-098-250500-
COASTAL PLAIN

CITY           SKY/WX    TMP DP  RH WIND       PRES   REMARKS
AHOSKIE        CLEAR     46  45  97 CALM      29.98S
CLINTON        PTCLDY    48  48 100 CALM      30.00F
ELIZABETHTOWN  PTCLDY    53  51  92 CALM      30.00S
GOLDSBORO      PTCLDY    52  50  93 CALM      29.97S FOG
GREENVILLE     LGT RAIN  48  48 100 CALM      30.00S VSB 3/4
HAVELOCK       CLEAR     50  47  89 CALM      29.99F
KENANSVILLE    CLEAR     45  45  99 CALM      30.00S
KINSTON        CLEAR     47  47  98 CALM      29.99S
NEW BERN       CLEAR     52  48  86 CALM      29.99F
RICHLANDS      CLEAR     46  43  87 CALM      29.99F
ROCKY MOUNT    CLEAR     46  44  93 CALM      29.98F
WASHINGTON     CLEAR     49  48  96 CALM      29.98F
WHITEVILLE     MOCLDY    51  49  93 CALM      30.00S

$$

AMZ130-135-150-152-154-156-158-170-250-252-270-ANZ085-086-088-633-658-670-250500-
MARINE OBSERVATIONS

STATION/POSITION TIME  TEMP    WIND        PRES    WAVE   SWELL
                       AIR SEA DIR/SP/G            HT/PER HT/PER
                 (UTC) (F)     (DEG/KT/KT) (MB)    (FT/S) (FT/S)
CHESAPEAKE LIGHT 0300   64     300/ 10/ 10 1014.6
64 E VA BEACH    0400   65 66  330/ 14/ 16 1012.8    4/ 5   2/ 7
DUCK             0400   60 66  290/  9/ 10 1013.5
2 E DUCK         0400                        N/A     3/10
10 NE DUCK       0400      67                N/A     3/ 9   2/11
OREGON INLET     0400   59 64  280/  6/  8 1014.3
13E OREGON INLT  0400      69                N/A     4/ 9   2/11
HATTERAS CG      0400   65 65  310/ 10/ 12 1015.0
DIAMOND BUOY     0400   66     320/ 16/ 17 1014.5    4/ 9   2/ 9
17 S OCRACOKE    0300          VRB 14/ 17  1014.9
CAPE LOOKOUT     0300   66     320/  8/ 10 1014.9
BEAUFORT LAB     0400   60 68  330/  3/  6 1014.4
30 SE NEW RIVER  0400   68 74  330/ 10/ 12 1014.8    3/10   2/10
5 SE WRIGHTSVLE  0400   62 72  290/  8/  8   N/A
225 S CAPE HAT   0344   72 77   10/ 10/ 14 1014.8    4/ 8   3/ 8
41 SE CHARLESTON 0400   69 78  360/  6/  8 1015.4    3/10   3/10

$$



USA.gov is the U.S. government's official web portal to all federal, state and local government web resources and services.